This is the latest recevied weather packets stored in our database for station/object K4PAD. If no packets are shown the sender has not sent any weather packets the latest 1 day(s).
| Time | Temp. | Humidity | Pressure | Rain* | Wind** | Luminosity | Snow |
|---|---|---|---|---|---|---|---|
| 1777982776 | 15.56° C | 97% | 1018.1 hPa | 0 mm | 0 m/s | 85 W/m² | - |
| 1777982472 | 15° C | 97% | 1018.1 hPa | 0 mm | 0 m/s | 53 W/m² | - |
| 1777982172 | 15° C | 97% | 1018.1 hPa | 0 mm | 0 m/s | 62 W/m² | - |
| 1777981869 | 15° C | 97% | 1018.1 hPa | 0 mm | 0 m/s | 41 W/m² | - |
| 1777981566 | 14.44° C | 97% | 1017.9 hPa | 0 mm | 0 m/s | 43 W/m² | - |
| 1777981262 | 13.89° C | 97% | 1017.8 hPa | 0 mm | 0 m/s | 41 W/m² | - |
| 1777980959 | 13.89° C | 97% | 1017.9 hPa | 0 mm | 0 m/s | 38 W/m² | - |
| 1777980655 | 13.89° C | 97% | 1018.1 hPa | 0 mm | 0 m/s | 34 W/m² | - |
| 1777980352 | 13.89° C | 97% | 1018.2 hPa | 0 mm | 0 m/s | 33 W/m² | - |
| 1777980051 | 13.33° C | 97% | 1018 hPa | 0 mm | 0 m/s | 26 W/m² | - |
| 1777979750 | 13.33° C | 97% | 1017.8 hPa | 0 mm | 0 m/s | 22 W/m² | - |
| 1777979446 | 13.33° C | 97% | 1017.9 hPa | 0 mm | 0 m/s | 19 W/m² | - |
| 1777979143 | 13.33° C | 97% | 1017.7 hPa | 0 mm | 0 m/s | 15 W/m² | - |
| 1777978839 | 13.33° C | 96% | 1017.5 hPa | 0 mm | 0 m/s | 13 W/m² | - |
| 1777978536 | 13.33° C | 97% | 1017.5 hPa | 0 mm | 0 m/s | 10 W/m² | - |
| 1777978231 | 13.33° C | 96% | 1017.6 hPa | 0 mm | 0 m/s | 7 W/m² | - |
| 1777977929 | 13.33° C | 96% | 1017.7 hPa | 0 mm | 0 m/s | 5 W/m² | - |
| 1777977626 | 13.33° C | 96% | 1017.6 hPa | 0 mm | 0 m/s | 3 W/m² | - |
| 1777977323 | 13.33° C | 96% | 1017.4 hPa | 0 mm | 0 m/s | 1 W/m² | - |
| 1777977021 | 13.33° C | 96% | 1017.1 hPa | 0 mm | 0 m/s | 0 W/m² | - |
| 1777976717 | 13.33° C | 96% | 1017.6 hPa | 0 mm | 0 m/s | 0 W/m² | - |
| 1777976415 | 13.33° C | 96% | 1017.5 hPa | 0 mm | 0 m/s | 0 W/m² | - |
| 1777976113 | 13.33° C | 96% | 1017.3 hPa | 0 mm | 0 m/s | 0 W/m² | - |
| 1777975809 | 13.33° C | 96% | 1017.3 hPa | 0 mm | 0 m/s | 0 W/m² | - |
| 1777975507 | 13.33° C | 96% | 1017.2 hPa | 0 mm | 0 m/s | 0 W/m² | - |
* Rain latest hour (hover to see other rain measurements)
** Current wind speed in m/s (hover to see current wind gust speed)